INTELSAT 39 (IS-39)

Last updated on Sun Jun 21 2026 00:03:08 GMT+0000 (Coordinated Universal Time)

1 44476U 19049B 26171.19039039 .00000029 00000+0 00000+0 0 9998 2 44476 0.0124 350.8490 0000926 338.3370 69.7027 1.00270937 25150
UTC large
Height (km)
Speed (km/s)
/
Latitude / Longitude
Inclination (degrees)
Orbital Period (minutes)
Azimuth
Elevation
Range (km)
Doppler Factor

Next 0 passes for location: London (51.5072 / 0.1276)

No passes found over London.
INTELSAT 39 (IS-39)